Regional Weather Roundup
Issued by NWS

Home | Current Version | Previous Version | Text Only | Print | Product List | Glossary Off
Versions: 1 2 3 4 5 6 7 8 9 10 11 12 13 14 15 16 17 18 19 20 21 22 23 24 25 26 27 28 29 30 31 32 33 34 35 36 37 38 39 40 41 42 43 44 45 46 47 48 49 50

000
ASUS43 KMKX 260221
RWRWI

WISCONSIN REGIONAL WEATHER ROUNDUP
NATIONAL WEATHER SERVICE MILWAUKEE/SULLIVAN WI
800 PM CST THU DEC 25 2014

NOTE: "FAIR" INDICATES FEW OR NO CLOUDS BELOW 12,000 FEET WITH NO
SIGNIFICANT WEATHER AND/OR OBSTRUCTIONS TO VISIBILITY.

WIZ001-002-006>008-014>016-023>028-260300-
NORTHWEST WISCONSIN

CITY           SKY/WX    TMP DP  RH WIND       PRES   REMARKS
SUPERIOR ARPT  CLOUDY    33  28  82 CALM      29.87S
ASHLAND        CLOUDY    32  29  88 S3        29.88R
HAYWARD        LGT SNOW  31  29  92 CALM      29.86R VSB 3/4
SIREN          LGT SNOW  32  31  97 CALM      29.88R
CUMBERLAND     LGT SNOW  30  30 100 CALM      29.85R
RICE LAKE      LGT SNOW  32  31  97 CALM      29.88R
CHETEK         CLOUDY    31  30  95 CALM      29.86R FOG
LADYSMITH      LGT SNOW  32  31  97 CALM      29.88R
EAU CLAIRE     CLOUDY    31  27  85 CALM      29.86R
MENOMONIE      CLOUDY    32  30  92 E3        29.87R
NEW RICHMOND   CLOUDY    32  32 100 NE3       29.86R FOG
OSCEOLA        LGT SNOW  32  32 100 CALM      29.89R
$$

WIZ003>005-009-010-017-018-260300-
NORTH CENTRAL WISCONSIN

CITY           SKY/WX    TMP DP  RH WIND       PRES   REMARKS
MANITOWISH WTR LGT SNOW  29  29 100 S3        29.84S
ARBOR VITAE    LGT SNOW  32  30  94 CALM      29.85R
WOODRUFF       LGT SNOW  32  30  94 CALM      29.85R
RHINELANDER    LGT SNOW  29  28  96 CALM      29.87R FOG
EAGLE RIVER    LGT SNOW  30  30 100 CALM      29.85R
LAND O LAKES   LGT SNOW  31  29  95 CALM      29.86R
PHILLIPS       LGT SNOW  29  29 100 CALM      29.86R
TOMAHAWK       CLOUDY    30  28  94 CALM      29.87R FOG
MEDFORD        CLOUDY    29  27  92 SE3       29.85R
MERRILL        CLOUDY    31  29  92 CALM      29.87R
$$

WIZ029-030-035-036-043>047-260300-
CENTRAL WISCONSIN

CITY           SKY/WX    TMP DP  RH WIND       PRES   REMARKS
WAUSAU         CLOUDY    32  27  81 E3        29.86R
MOSINEE        CLEAR     30  30 100 SE5       29.88R WCI  25
MARSHFIELD     CLOUDY    31  27  85 E5        29.86R WCI  26
STEVENS POINT  CLOUDY    29  27  94 CALM      29.88R
WAUPACA        MOCLDY    32  30  94 CALM      29.89S FOG
WAUTOMA        CLOUDY    29  29 100 CALM      29.89R
WISC RAPIDS    CLOUDY    30  27  88 SE5       29.88R WCI  25
CAMP DOUGLAS   CLOUDY    31  31 100 E2        29.87R
$$

WIZ011>013-019>022-031-037>040-048>050-260300-
NORTHEAST WISCONSIN

CITY           SKY/WX    TMP DP  RH WIND       PRES   REMARKS
ANTIGO         CLOUDY    28  28  96 S5        29.88R WCI  23
SHAWANO        MOCLDY    32  30  92 CALM      29.91R
OCONTO         MOCLDY    30  30 100 CALM      29.92R
STURGEON BAY   CLOUDY    34  28  80 S3        29.94S
GREEN BAY      MOCLDY    33  31  92 CALM      29.91S
MANITOWOC      MOCLDY    35  31  85 S6        29.92S WCI  30
APPLETON       PTCLDY    32  32 100 VRB3      29.90S
CLINTONVILLE   MOCLDY    32  30  93 CALM      29.90R
OSHKOSH        PTCLDY    35  31  85 S8        29.89S WCI  29
$$

WIZ032>034-041-042-053>061-260300-
SOUTHWEST WISCONSIN

CITY           SKY/WX    TMP DP  RH WIND       PRES   REMARKS
LA CROSSE      CLOUDY    33  29  85 CALM      29.85R
SPARTA         CLOUDY    30  29  96 CALM      29.87R
VIROQUA        CLOUDY    36  33  88 S12       29.83S WCI  28
BOSCOBEL       CLOUDY    33  29  85 CALM      29.88R
PRAIRIE DU CHI CLOUDY    42  31  63 SE6       29.86R
PLATTEVILLE    CLOUDY    40  33  77 S15       29.88S WCI  31
$$

WIZ056-057-062-063-064-067-068-260300-
SOUTH CENTRAL WISCONSIN

CITY           SKY/WX    TMP DP  RH WIND       PRES   REMARKS
REEDSBURG      CLOUDY    38  32  80 S9G17     29.87R WCI  31
BARABOO/DELLS  CLOUDY    38  32  80 S10       29.87S WCI  30
LONE ROCK      CLOUDY    40  31  70 E3        29.89R
MINERAL POINT  CLOUDY    37  32  81 S9        29.88R WCI  31
MADISON        CLOUDY    40  32  73 S10       29.90R WCI  33
MIDDLETON      CLOUDY    41  32  72 S12G18    29.90R
WATERTOWN      CLOUDY    38  34  85 S8        29.90S WCI  32
MONROE         CLOUDY    37  34  87 S17G23    29.89R WCI  28
JANESVILLE     CLEAR     43  34  70 S15G24    29.91R
$$

WIZ051-052-058>065-066-070>072-260300-
SOUTHEAST WISCONSIN

CITY           SKY/WX    TMP DP  RH WIND       PRES   REMARKS
MILWAUKEE      CLOUDY    40  32  73 S14       29.95R WCI  32
WAUKESHA       MOCLDY    37  32  81 S12       29.94R WCI  30
MILWAUKEE/TIMM NOT AVBL
RACINE         CLOUDY    41  33  73 S14       29.97R
BURLINGTON     CLOUDY    38  33  82 S10G16    29.94R WCI  31
KENOSHA        CLOUDY    41  34  76 S14       29.95S
FOND DU LAC    PTCLDY    37  31  78 S13       29.89S WCI  29
SHEBOYGAN      PTCLDY    35  30  82 S7        29.91F WCI  29
WEST BEND      MOCLDY    36  32  87 S9        29.92R WCI  29
JUNEAU         MOCLDY    36  32  86 S10       29.91R WCI  28
$$

LSZ147-162-260300-
LAKE SUPERIOR

STATION/POSITION TIME  TEMP    WIND        PRES    WAVE
                       AIR SEA DIR/SP/G            HT/PER
                 (UTC) (F)     (DEG/KT/KT) (MB)    (FT/S)
DEVILS ISLAND    0200   34     260/  6/  8 1012.3R
PORT WING        0100   33     210/  3/  5 1011.5R
SAXON HARBOR     0100   33        CALM     1011.5R
$$

LMZ867-665-643>646-260300-
LAKE MICHIGAN

STATION/POSITION TIME  TEMP    WIND        PRES    WAVE
                       AIR SEA DIR/SP/G            HT/PER
                 (UTC) (F)     (DEG/KT/KT) (MB)    (FT/S)
CHAMBERS ISLAND  0100   35     190/  4/ 10 1013.2R
NORTHPORT PIER   0200   34     150/  1/  4 1013.5R
SISTER BAY       0113          200/  6/  9   N/A
ALGOMA LAKESHORE 0115          240/  3/  4   N/A
KEWAUNEE LAKESHO 0100   36     180/  2/  3 1012.4R
SHEBOYGAN LAKESH 0200   39 37  190/ 16/ 18 1013.8F
PORT WASHINGTON  0100   38     200/  5/  9 1014.2R
MILWAUKEE LAKESH 0200   40     200/ 14/ 17   N/A
KENOSHA   LAKESH 0200   42     190/ 14/ 20 1014.6R
$$

TC  - TEMPERATURE IN CELSIUS
VSB - VISIBILITY IN STATUTE MILES
WCI - WIND CHILL INDEX
HX  - HEAT INDEX



USA.gov is the U.S. government's official web portal to all federal, state and local government web resources and services.